| time (UTC) | temp C | wind direction | speed KPH | gust KPH | rain 1hr cm | rain 24hr cm | rain mn cm | humidity % | barometer mb |
| 20260510204531 | 16 | 292 | 8.0 | 19.3 | 0.00 | 0.28 | 0.25 | 43 | 1013.1 |
| 20260510203027 | 16 | 253 | 6.4 | 17.7 | 0.00 | 0.28 | 0.25 | 43 | 1013.3 |
| 20260510201524 | 16 | 23 | 9.7 | 27.4 | 0.00 | 0.30 | 0.25 | 46 | 1013.3 |
| 20260510200020 | 15 | 256 | 4.8 | 19.3 | 0.00 | 0.30 | 0.25 | 52 | 1013.3 |
| 20260510194516 | 15 | 194 | 8.0 | 19.3 | 0.00 | 0.30 | 0.25 | 52 | 1013.3 |
| 20260510193011 | 15 | 301 | 3.2 | 11.3 | 0.00 | 0.30 | 0.25 | 58 | 1013.3 |
| 20260510191510 | 15 | 251 | 1.6 | 16.1 | 0.00 | 0.30 | 0.25 | 59 | 1013.4 |
| 20260510190004 | 15 | 59 | 3.2 | 11.3 | 0.00 | 0.30 | 0.25 | 59 | 1013.5 |
| 20260510184501 | 14 | 276 | 9.7 | 17.7 | 0.00 | 0.30 | 0.25 | 62 | 1013.6 |
| 20260510183058 | 13 | 135 | 6.4 | 14.5 | 0.00 | 0.30 | 0.25 | 64 | 1013.7 |
| 20260510181603 | 13 | 257 | 3.2 | 16.1 | 0.00 | 0.36 | 0.25 | 65 | 1013.7 |
| 20260510180019 | 12 | 131 | 4.8 | 12.9 | 0.03 | 0.36 | 0.25 | 68 | 1013.8 |
| 20260510174519 | 12 | 155 | 1.6 | 11.3 | 0.13 | 0.36 | 0.25 | 72 | 1013.9 |
| 20260510173015 | 11 | 144 | 3.2 | 12.9 | 0.15 | 0.36 | 0.25 | 74 | 1014.0 |
| 20260510171513 | 11 | 157 | 4.8 | 11.3 | 0.18 | 0.36 | 0.25 | 75 | 1014.3 |
| 20260510170019 | 10 | 156 | 1.6 | 9.7 | 0.20 | 0.33 | 0.23 | 75 | 1014.1 |
| 20260510164510 | 10 | 147 | 4.8 | 8.0 | 0.13 | 0.23 | 0.13 | 75 | 1013.9 |
| 20260510163008 | 10 | 145 | 3.2 | 11.3 | 0.10 | 0.25 | 0.10 | 74 | 1013.9 |
| 20260510161507 | 10 | 190 | 6.4 | 11.3 | 0.08 | 0.23 | 0.08 | 73 | 1013.8 |
| 20260510160005 | 11 | 167 | 6.4 | 17.7 | 0.03 | 0.18 | 0.03 | 71 | 1014.1 |
| 20260510154504 | 11 | 163 | 8.0 | 12.9 | 0.00 | 0.15 | 0.00 | 68 | 1013.8 |
| 20260510153059 | 12 | 145 | 4.8 | 11.3 | 0.00 | 0.15 | 0.00 | 67 | 1013.8 |
| 20260510151559 | 12 | 121 | 8.0 | 17.7 | 0.00 | 0.15 | 0.00 | 67 | 1013.2 |
| 20260510150058 | 12 | 165 | 12.9 | 22.5 | 0.00 | 0.15 | 0.00 | 66 | 1013.0 |
| 20260510144552 | 12 | 146 | 12.9 | 25.7 | 0.00 | 0.15 | 0.00 | 64 | 1012.7 |
| 20260510143045 | 12 | 205 | 6.4 | 20.9 | 0.00 | 0.15 | 0.00 | 67 | 1013.2 |
| 20260510141545 | 11 | 111 | 11.3 | 19.3 | 0.00 | 0.15 | 0.00 | 68 | 1013.3 |
| 20260510140035 | 10 | 145 | 8.0 | 19.3 | 0.00 | 0.15 | 0.00 | 71 | 1013.5 |
| 20260510134533 | 10 | 153 | 11.3 | 22.5 | 0.00 | 0.15 | 0.00 | 71 | 1013.3 |
| 20260510133029 | 10 | 199 | 6.4 | 19.3 | 0.00 | 0.15 | 0.00 | 71 | 1013.1 |
| 20260510131526 | 10 | 139 | 11.3 | 20.9 | 0.00 | 0.15 | 0.00 | 72 | 1012.7 |
| 20260510130039 | 9 | 120 | 11.3 | 16.1 | 0.00 | 0.15 | 0.00 | 72 | 1013.6 |
| 20260510124526 | 9 | 206 | 9.7 | 17.7 | 0.00 | 0.15 | 0.00 | 73 | 1013.4 |
| 20260510123014 | 8 | 161 | 11.3 | 19.3 | 0.00 | 0.15 | 0.00 | 74 | 1013.6 |
| 20260510121513 | 8 | 165 | 12.9 | 20.9 | 0.00 | 0.15 | 0.00 | 74 | 1013.2 |
| 20260510120025 | 8 | 155 | 16.1 | 20.9 | 0.00 | 0.15 | 0.00 | 75 | 1013.0 |
| 20260510114515 | 8 | 121 | 14.5 | 22.5 | 0.00 | 0.15 | 0.00 | 75 | 1013.0 |
| 20260510113006 | 7 | 161 | 12.9 | 22.5 | 0.00 | 0.15 | 0.00 | 75 | 1013.1 |
| 20260510111504 | 7 | 150 | 14.5 | 29.0 | 0.00 | 0.15 | 0.00 | 75 | 1012.7 |
| 20260510110007 | 7 | 109 | 17.7 | 24.1 | 0.00 | 0.15 | 0.00 | 75 | 1012.7 |
| 20260510104504 | 7 | 132 | 9.7 | 19.3 | 0.00 | 0.15 | 0.00 | 75 | 1012.6 |
| 20260510103058 | 7 | 148 | 9.7 | 19.3 | 0.00 | 0.15 | 0.00 | 76 | 1012.4 |
| 20260510101557 | 7 | 208 | 6.4 | 20.9 | 0.00 | 0.15 | 0.00 | 76 | 1012.3 |
| 20260510100101 | 7 | 157 | 16.1 | 24.1 | 0.00 | 0.15 | 0.00 | 75 | 1012.0 |
| 20260510094554 | 7 | 129 | 14.5 | 25.7 | 0.00 | 0.15 | 0.00 | 76 | 1011.6 |
| 20260510093054 | 7 | 157 | 9.7 | 22.5 | 0.00 | 0.15 | 0.00 | 76 | 1011.2 |
| 20260510091549 | 7 | 132 | 12.9 | 22.5 | 0.00 | 0.15 | 0.00 | 75 | 1011.3 |
| 20260510090048 | 7 | 157 | 14.5 | 25.7 | 0.00 | 0.15 | 0.00 | 76 | 1011.5 |
| 20260510084544 | 6 | 155 | 17.7 | 25.7 | 0.00 | 0.15 | 0.00 | 75 | 1011.9 |
| 20260510083053 | 6 | 142 | 19.3 | 29.0 | 0.00 | 0.15 | 0.00 | 75 | 1012.3 |
| 20260510081538 | 6 | 146 | 16.1 | 30.6 | 0.00 | 0.15 | 0.00 | 75 | 1011.8 |
| 20260510080037 | 6 | 136 | 20.9 | 33.8 | 0.00 | 0.15 | 0.00 | 75 | 1012.0 |
| 20260510074535 | 6 | 167 | 17.7 | 27.4 | 0.00 | 0.15 | 0.00 | 76 | 1011.7 |
| 20260510073036 | 6 | 172 | 17.7 | 32.2 | 0.00 | 0.15 | 0.00 | 76 | 1011.8 |
| 20260510073034 | 6 | 148 | 17.7 | 32.2 | 0.00 | 0.15 | 0.00 | 76 | 1011.8 |
| 20260510071531 | 6 | 148 | 16.1 | 24.1 | 0.00 | 0.15 | 0.00 | 76 | 1012.2 |
| 20260510070036 | 6 | 171 | 14.5 | 24.1 | 0.00 | 0.15 | 0.00 | 76 | 1012.2 |
| 20260510070033 | 6 | 140 | 14.5 | 24.1 | 0.00 | 0.15 | 0.00 | 76 | 1012.2 |
| 20260510064534 | 6 | 142 | 12.9 | 20.9 | 0.00 | 0.15 | 0.00 | 77 | 1012.0 |
| 20260510063025 | 6 | 122 | 12.9 | 24.1 | 0.00 | 0.15 | 0.00 | 77 | 1012.4 |
| 20260510061524 | 6 | 166 | 12.9 | 24.1 | 0.00 | 0.15 | 0.00 | 77 | 1012.4 |
| 20260510060020 | 5 | 121 | 14.5 | 24.1 | 0.00 | 0.15 | 0.00 | 77 | 1012.3 |
| 20260510054520 | 5 | 161 | 11.3 | 27.4 | 0.00 | 0.15 | 0.00 | 77 | 1012.5 |
| 20260510053024 | 5 | 146 | 14.5 | 25.7 | 0.00 | 0.15 | 0.00 | 77 | 1012.6 |
| 20260510051517 | 5 | 140 | 16.1 | 27.4 | 0.00 | 0.15 | 0.00 | 77 | 1012.9 |
| 20260510050014 | 5 | 138 | 20.9 | 29.0 | 0.00 | 0.15 | 0.00 | 77 | 1012.8 |
| 20260510044518 | 5 | 153 | 19.3 | 32.2 | 0.00 | 0.15 | 0.00 | 77 | 1012.5 |
| 20260510043016 | 5 | 131 | 17.7 | 32.2 | 0.00 | 0.15 | 0.00 | 77 | 1012.6 |
| 20260510041514 | 5 | 128 | 17.7 | 29.0 | 0.00 | 0.15 | 0.00 | 77 | 1012.7 |
| 20260510040008 | 5 | 128 | 14.5 | 27.4 | 0.00 | 0.15 | 0.00 | 77 | 1012.8 |
| 20260510034516 | 5 | 154 | 20.9 | 30.6 | 0.00 | 0.15 | 0.00 | 77 | 1012.6 |
| 20260510033005 | 5 | 107 | 16.1 | 27.4 | 0.00 | 0.15 | 0.00 | 76 | 1012.8 |
| 20260510031502 | 5 | 153 | 17.7 | 33.8 | 0.00 | 0.15 | 0.00 | 76 | 1012.8 |
| 20260510030100 | 5 | 146 | 17.7 | 38.6 | 0.00 | 0.15 | 0.00 | 76 | 1012.8 |
| 20260510024605 | 5 | 132 | 16.1 | 32.2 | 0.00 | 0.15 | 0.00 | 76 | 1013.1 |
| 20260510023056 | 5 | 139 | 17.7 | 29.0 | 0.00 | 0.15 | 0.00 | 76 | 1012.9 |
| 20260510021552 | 6 | 143 | 17.7 | 40.2 | 0.00 | 0.15 | 0.00 | 75 | 1013.3 |
| 20260510020053 | 6 | 173 | 20.9 | 30.6 | 0.00 | 0.15 | 0.00 | 75 | 1013.1 |
| 20260510014548 | 6 | 133 | 20.9 | 40.2 | 0.00 | 0.15 | 0.00 | 73 | 1013.6 |
| 20260510013043 | 6 | 145 | 17.7 | 35.4 | 0.00 | 0.15 | 0.00 | 70 | 1013.4 |
| 20260510011541 | 6 | 135 | 22.5 | 38.6 | 0.00 | 0.15 | 0.15 | 68 | 1013.2 |
| 20260510010040 | 6 | 94 | 24.1 | 38.6 | 0.00 | 0.15 | 0.15 | 68 | 1013.3 |
| 20260510004538 | 6 | 144 | 19.3 | 33.8 | 0.00 | 0.15 | 0.15 | 67 | 1013.2 |
| 20260510003041 | 6 | 120 | 19.3 | 33.8 | 0.00 | 0.15 | 0.15 | 67 | 1013.1 |
| 20260510001533 | 6 | 157 | 16.1 | 33.8 | 0.00 | 0.15 | 0.15 | 68 | 1013.1 |
| 20260510000132 | 6 | 122 | 17.7 | 33.8 | 0.00 | 0.15 | 0.15 | 67 | 1012.9 |
| 20260509234541 | 6 | 119 | 16.1 | 29.0 | 0.00 | 0.15 | 0.15 | 67 | 1012.9 |
| 20260509233031 | 6 | 139 | 22.5 | 33.8 | 0.03 | 0.15 | 0.15 | 67 | 1012.8 |
| 20260509231530 | 6 | 140 | 17.7 | 33.8 | 0.03 | 0.15 | 0.15 | 67 | 1012.6 |
| 20260509230031 | 6 | 136 | 20.9 | 29.0 | 0.03 | 0.15 | 0.15 | 68 | 1012.5 |
| 20260509224538 | 6 | 135 | 22.5 | 32.2 | 0.00 | 0.13 | 0.13 | 68 | 1012.6 |
| 20260509223025 | 6 | 151 | 17.7 | 32.2 | 0.00 | 0.13 | 0.13 | 67 | 1012.9 |
| 20260509221525 | 6 | 138 | 14.5 | 27.4 | 0.00 | 0.13 | 0.13 | 66 | 1012.9 |
| 20260509220024 | 6 | 142 | 20.9 | 33.8 | 0.00 | 0.13 | 0.13 | 66 | 1013.0 |
| 20260509214552 | 6 | 150 | 20.9 | 30.6 | 0.00 | 0.13 | 0.13 | 67 | 1013.2 |
| 20260509213054 | 6 | 140 | 14.5 | 25.7 | 0.00 | 0.13 | 0.13 | 67 | 1013.4 |
| 20260509211549 | 6 | 154 | 8.0 | 37.0 | 0.00 | 0.13 | 0.13 | 67 | 1013.3 |
| 20260509210057 | 6 | 134 | 17.7 | 27.4 | 0.00 | 0.13 | 0.13 | 67 | 1013.3 |